QPF
0.01 0.01 0.01 0.00 0.02 0.02 0.02 0.02 0.01 0.01 0.01 0.01 0.00 0.00 0.00 0.00 0.00 0.01 0.00 0.00 0.00 0.00 0.00 0.01 0.01 0.02 0.03 0.02 0.02 0.02 0.03 0.03 0.02 0.02 0.02 0.02 0.02 0.02 0.02 0.02 0.03 0.04 0.04 0.05 0.06 0.03 0.03 0.03 0.02
0.01 0.01 0.01 0.01 0.02 0.02 0.02 0.02 0.01 0.01 0.01 0.00 0.00 0.00 0.00 0.00 0.00 0.00 0.00 0.00 0.00 0.00 0.00 0.00 0.01 0.02 0.02 0.02 0.02 0.02 0.02 0.03 0.03 0.02 0.02 0.02 0.02 0.02 0.02 0.02 0.02 0.04 0.05 0.04 0.04 0.03 0.02 0.02 0.01
0.01 0.01 0.01 0.01 0.01 0.01 0.02 0.02 0.01 0.00 0.00 0.00 0.00 0.00 0.00 0.00 0.00 0.00 0.01 0.00 0.00 0.00 0.00 0.00 0.01 0.01 0.02 0.02 0.02 0.02 0.02 0.04 0.04 0.03 0.02 0.02 0.02 0.02 0.02 0.02 0.03 0.04 0.04 0.04 0.04 0.03 0.02 0.01 0.01
0.01 0.01 0.01 0.01 0.01 0.01 0.01 0.01 0.01 0.01 0.00 0.00 0.00 0.00 0.00 0.00 0.00 0.00 0.00 0.00 0.00 0.00 0.00 0.00 0.00 0.01 0.01 0.02 0.02 0.03 0.03 0.03 0.03 0.03 0.03 0.02 0.02 0.02 0.02 0.02 0.04 0.04 0.05 0.06 0.04 0.02 0.02 0.01 0.01
0.01 0.01 0.01 0.01 0.01 0.01 0.01 0.00 0.00 0.00 0.01 0.00 0.00 0.00 0.00 0.00 0.00 0.00 0.00 0.00 0.00 0.00 0.00 0.00 0.00 0.00 0.01 0.01 0.02 0.03 0.04 0.03 0.03 0.04 0.03 0.02 0.02 0.02 0.02 0.03 0.05 0.05 0.06 0.06 0.04 0.02 0.02 0.01 0.01
0.01 0.01 0.02 0.01 0.00 0.00 0.01 0.00 0.00 0.00 0.01 0.01 0.00 0.00 0.00 0.00 0.00 0.00 0.00 0.00 0.00 0.00 0.01 0.01 0.01 0.01 0.01 0.01 0.01 0.03 0.04 0.04 0.03 0.03 0.03 0.03 0.02 0.02 0.02 0.04 0.05 0.05 0.05 0.05 0.04 0.03 0.02 0.01 0.01
0.01 0.01 0.01 0.01 0.00 0.00 0.00 0.00 0.00 0.00 0.00 0.01 0.01 0.00 0.00 0.00 0.00 0.00 0.00 0.00 0.01 0.01 0.01 0.01 0.01 0.01 0.01 0.01 0.01 0.02 0.03 0.03 0.03 0.03 0.03 0.03 0.03 0.03 0.03 0.04 0.04 0.03 0.03 0.04 0.04 0.03 0.02 0.01 0.00
0.01 0.01 0.01 0.00 0.00 0.00 0.00 0.00 0.00 0.00 0.00 0.00 0.00 0.01 0.01 0.01 0.01 0.01 0.01 0.01 0.01 0.01 0.01 0.00 0.00 0.01 0.01 0.02 0.01 0.01 0.01 0.02 0.02 0.02 0.03 0.03 0.03 0.04 0.04 0.03 0.03 0.03 0.03 0.03 0.03 0.03 0.03 0.02 0.01
0.01 0.01 0.01 0.00 0.00 0.00 0.00 0.00 0.00 0.00 0.00 0.00 0.00 0.01 0.01 0.01 0.01 0.01 0.01 0.01 0.01 0.01 0.01 0.01 0.01 0.01 0.02 0.02 0.01 0.00 0.01 0.02 0.02 0.02 0.03 0.03 0.03 0.04 0.04 0.03 0.02 0.02 0.02 0.02 0.02 0.02 0.02 0.02 0.02
0.01 0.01 0.00 0.00 0.00 0.00 0.00 0.00 0.00 0.00 0.00 0.00 0.00 0.00 0.01 0.01 0.01 0.01 0.01 0.01 0.01 0.01 0.01 0.01 0.01 0.01 0.02 0.02 0.01 0.02 0.02 0.02 0.03 0.03 0.04 0.04 0.05 0.05 0.04 0.03 0.02 0.02 0.01 0.01 0.01 0.01 0.01 0.01 0.01
0.01 0.01 0.00 0.00 0.00 0.00 0.00 0.00 0.00 0.00 0.00 0.01 0.01 0.01 0.01 0.01 0.01 0.02 0.01 0.01 0.01 0.01 0.01 0.01 0.01 0.01 0.01 0.02 0.01 0.01 0.02 0.03 0.04 0.04 0.03 0.04 0.05 0.05 0.05 0.03 0.02 0.02 0.01 0.01 0.01 0.01 0.00 0.01 0.01
0.01 0.00 0.00 0.01 0.00 0.00 0.00 0.00 0.01 0.01 0.01 0.01 0.01 0.01 0.02 0.02 0.01 0.02 0.01 0.01 0.01 0.01 0.01 0.01 0.00 0.01 0.02 0.02 0.02 0.01 0.01 0.01 0.03 0.04 0.03 0.03 0.04 0.05 0.05 0.03 0.02 0.02 0.01 0.01 0.01 0.01 0.00 0.00 0.00
0.01 0.01 0.01 0.01 0.00 0.00 0.00 0.00 0.01 0.02 0.03 0.02 0.01 0.02 0.02 0.01 0.01 0.02 0.02 0.02 0.01 0.01 0.01 0.01 0.00 0.00 0.01 0.02 0.02 0.01 0.01 0.01 0.01 0.03 0.03 0.03 0.04 0.04 0.06 0.07 0.03 0.01 0.01 0.01 0.01 0.00 0.00 0.00 0.01
0.01 0.01 0.01 0.01 0.01 0.00 0.00 0.01 0.01 0.03 0.04 0.03 0.01 0.01 0.02 0.02 0.02 0.02 0.03 0.04 0.03 0.02 0.02 0.01 0.00 0.00 0.00 0.01 0.02 0.02 0.02 0.01 0.01 0.01 0.02 0.03 0.04 0.04 0.05 0.07 0.06 0.03 0.02 0.01 0.00 0.00 0.00 0.00 0.01
0.01 0.01 0.01 0.01 0.01 0.01 0.01 0.02 0.03 0.04 0.04 0.04 0.02 0.01 0.01 0.01 0.02 0.03 0.04 0.04 0.04 0.04 0.03 0.02 0.01 0.01 0.00 0.01 0.01 0.02 0.02 0.02 0.01 0.01 0.03 0.03 0.04 0.04 0.04 0.06 0.06 0.04 0.02 0.02 0.01 0.00 0.00 0.00 0.00
0.01 0.01 0.01 0.01 0.01 0.01 0.02 0.03 0.03 0.04 0.03 0.02 0.03 0.02 0.01 0.01 0.01 0.02 0.03 0.03 0.03 0.03 0.03 0.03 0.02 0.02 0.01 0.01 0.02 0.02 0.02 0.02 0.02 0.02 0.04 0.05 0.06 0.06 0.06 0.05 0.05 0.03 0.02 0.02 0.01 0.01 0.01 0.01 0.01
0.01 0.01 0.01 0.01 0.01 0.01 0.02 0.02 0.03 0.03 0.03 0.02 0.02 0.02 0.01 0.01 0.01 0.01 0.02 0.02 0.02 0.02 0.01 0.02 0.03 0.03 0.02 0.02 0.02 0.03 0.03 0.04 0.04 0.04 0.03 0.05 0.07 0.08 0.08 0.05 0.04 0.03 0.02 0.02 0.01 0.01 0.01 0.01 0.02
0.00 0.00 0.00 0.00 0.01 0.01 0.01 0.01 0.01 0.01 0.01 0.01 0.01 0.01 0.01 0.00 0.01 0.01 0.01 0.02 0.02 0.01 0.01 0.02 0.02 0.02 0.02 0.02 0.03 0.03 0.03 0.04 0.05 0.05 0.05 0.06 0.07 0.08 0.09 0.07 0.05 0.04 0.03 0.03 0.02 0.02 0.02 0.02 0.02
0.00 0.00 0.00 0.00 0.00 0.00 0.01 0.01 0.01 0.00 0.00 0.00 0.01 0.01 0.00 0.01 0.01 0.02 0.02 0.02 0.01 0.01 0.02 0.02 0.02 0.02 0.02 0.03 0.03 0.03 0.02 0.03 0.05 0.06 0.05 0.07 0.09 0.10 0.09 0.08 0.06 0.06 0.06 0.06 0.06 0.05 0.05 0.04 0.02
0.01 0.01 0.01 0.00 0.00 0.00 0.01 0.01 0.01 0.01 0.01 0.00 0.00 0.00 0.00 0.01 0.02 0.02 0.02 0.02 0.01 0.01 0.01 0.01 0.02 0.03 0.03 0.03 0.04 0.03 0.03 0.03 0.04 0.04 0.04 0.06 0.08 0.10 0.10 0.09 0.06 0.05 0.06 0.07 0.06 0.06 0.06 0.05 0.04
0.00 0.01 0.01 0.01 0.01 0.01 0.01 0.01 0.01 0.01 0.01 0.01 0.01 0.00 0.00 0.01 0.01 0.01 0.02 0.02 0.01 0.01 0.01 0.01 0.01 0.01 0.02 0.03 0.03 0.04 0.05 0.05 0.04 0.04 0.05 0.06 0.08 0.09 0.09 0.09 0.08 0.07 0.07 0.07 0.06 0.06 0.05 0.04 0.04
0.01 0.00 0.00 0.01 0.02 0.02 0.01 0.01 0.01 0.01 0.01 0.01 0.00 0.00 0.00 0.00 0.01 0.01 0.01 0.02 0.02 0.01 0.01 0.01 0.01 0.01 0.01 0.02 0.02 0.03 0.04 0.05 0.04 0.04 0.05 0.07 0.08 0.09 0.10 0.09 0.08 0.06 0.06 0.06 0.06 0.06 0.06 0.06 0.06
0.00 0.00 0.01 0.01 0.02 0.02 0.01 0.01 0.01 0.00 0.01 0.01 0.00 0.00 0.00 0.00 0.00 0.01 0.01 0.01 0.01 0.01 0.01 0.01 0.01 0.01 0.01 0.02 0.02 0.03 0.04 0.04 0.03 0.03 0.05 0.07 0.07 0.07 0.08 0.09 0.08 0.06 0.05 0.05 0.05 0.05 0.05 0.06 0.06
0.01 0.01 0.01 0.01 0.02 0.02 0.01 0.01 0.00 0.00 0.00 0.00 0.00 0.00 0.00 0.00 0.00 0.00 0.00 0.01 0.01 0.01 0.01 0.01 0.01 0.01 0.01 0.01 0.02 0.03 0.03 0.03 0.03 0.03 0.04 0.05 0.05 0.06 0.07 0.07 0.07 0.06 0.05 0.05 0.05 0.05 0.05 0.05 0.05
0.01 0.02 0.03 0.04 0.03 0.01 0.00 0.00 0.01 0.00 0.00 0.00 0.00 0.00 0.00 0.00 0.00 0.00 0.00 0.00 0.01 0.01 0.01 0.01 0.01 0.01 0.01 0.01 0.01 0.01 0.02 0.02 0.03 0.03 0.03 0.03 0.04 0.04 0.05 0.05 0.05 0.05 0.04 0.04 0.05 0.05 0.04 0.04 0.04
0.00 0.01 0.03 0.04 0.04 0.02 0.00 0.01 0.02 0.00 0.00 0.00 0.00 0.00 0.00 0.00 0.00 0.00 0.00 0.00 0.00 0.00 0.00 0.01 0.01 0.02 0.02 0.01 0.01 0.01 0.01 0.01 0.02 0.02 0.03 0.03 0.03 0.04 0.05 0.05 0.04 0.04 0.04 0.04 0.04 0.04 0.03 0.03 0.03
0.01 0.01 0.01 0.03 0.03 0.03 0.02 0.01 0.01 0.00 0.00 0.00 0.00 0.00 0.00 0.00 0.00 0.01 0.01 0.00 0.01 0.01 0.01 0.01 0.01 0.01 0.01 0.01 0.01 0.01 0.01 0.01 0.01 0.02 0.02 0.03 0.03 0.04 0.04 0.05 0.05 0.05 0.05 0.04 0.04 0.04 0.03 0.03 0.03
0.01 0.02 0.03 0.04 0.04 0.04 0.03 0.01 0.01 0.00 0.00 0.00 0.00 0.00 0.00 0.00 0.00 0.01 0.01 0.01 0.01 0.01 0.02 0.02 0.02 0.02 0.01 0.01 0.01 0.01 0.01 0.01 0.02 0.02 0.02 0.03 0.03 0.04 0.04 0.05 0.06 0.06 0.06 0.05 0.05 0.05 0.04 0.04 0.03
0.01 0.02 0.03 0.03 0.03 0.03 0.04 0.03 0.01 0.00 0.00 0.00 0.00 0.00 0.00 0.00 0.00 0.01 0.01 0.01 0.01 0.03 0.04 0.02 0.02 0.02 0.01 0.01 0.01 0.01 0.02 0.02 0.02 0.02 0.02 0.03 0.03 0.04 0.04 0.04 0.04 0.05 0.05 0.05 0.04 0.04 0.04 0.04 0.03
0.02 0.01 0.02 0.03 0.02 0.02 0.03 0.03 0.01 0.00 0.00 0.00 0.00 0.00 0.00 0.00 0.00 0.00 0.01 0.01 0.01 0.02 0.03 0.02 0.01 0.02 0.01 0.01 0.01 0.02 0.02 0.02 0.02 0.02 0.02 0.03 0.03 0.04 0.04 0.04 0.03 0.03 0.03 0.03 0.02 0.02 0.02 0.02 0.02
MSLP
1014.72 1014.93 1015.51 1016.39 1017.48 1018.62 1019.68 1020.52 1021.10 1021.42 1021.57 1021.65 1021.79 1022.09 1022.58 1023.26 1024.05 1024.86 1025.58 1026.15 1026.52 1026.70 1026.74 1026.69 1026.61 1026.55 1026.52 1026.50 1026.47 1026.41 1026.29 1026.12 1025.91 1025.67 1025.45 1025.25 1025.07 1024.91 1024.76 1024.59 1024.41 1024.21 1024.01 1023.82 1023.66 1023.54 1023.45 1023.35 1023.22
1015.06 1015.39 1016.08 1017.03 1018.15 1019.27 1020.26 1021.03 1021.51 1021.76 1021.85 1021.91 1022.06 1022.39 1022.92 1023.63 1024.44 1025.25 1025.96 1026.50 1026.85 1027.01 1027.03 1026.97 1026.89 1026.83 1026.79 1026.78 1026.75 1026.70 1026.61 1026.47 1026.30 1026.13 1025.96 1025.80 1025.65 1025.51 1025.34 1025.14 1024.91 1024.66 1024.42 1024.22 1024.06 1023.96 1023.89 1023.82 1023.72
1015.40 1015.84 1016.60 1017.59 1018.69 1019.75 1020.66 1021.32 1021.72 1021.90 1021.98 1022.06 1022.26 1022.65 1023.24 1024.00 1024.83 1025.64 1026.33 1026.84 1027.15 1027.28 1027.29 1027.22 1027.15 1027.09 1027.07 1027.06 1027.04 1027.01 1026.93 1026.82 1026.70 1026.57 1026.45 1026.33 1026.21 1026.06 1025.88 1025.64 1025.37 1025.08 1024.80 1024.57 1024.40 1024.30 1024.25 1024.21 1024.13
1015.73 1016.25 1017.06 1018.05 1019.10 1020.08 1020.88 1021.44 1021.77 1021.91 1022.00 1022.13 1022.40 1022.87 1023.53 1024.32 1025.17 1025.95 1026.61 1027.07 1027.34 1027.45 1027.46 1027.41 1027.36 1027.33 1027.33 1027.34 1027.34 1027.32 1027.26 1027.17 1027.07 1026.97 1026.88 1026.80 1026.69 1026.55 1026.36 1026.10 1025.79 1025.47 1025.17 1024.92 1024.75 1024.65 1024.61 1024.58 1024.51
1016.06 1016.65 1017.48 1018.44 1019.43 1020.31 1021.00 1021.46 1021.73 1021.86 1021.98 1022.18 1022.53 1023.08 1023.79 1024.60 1025.43 1026.17 1026.76 1027.17 1027.40 1027.50 1027.51 1027.50 1027.50 1027.53 1027.58 1027.62 1027.65 1027.64 1027.58 1027.50 1027.41 1027.32 1027.25 1027.18 1027.09 1026.96 1026.77 1026.52 1026.21 1025.89 1025.58 1025.33 1025.16 1025.06 1025.02 1025.00 1024.94
1016.43 1017.07 1017.90 1018.83 1019.73 1020.50 1021.08 1021.47 1021.69 1021.83 1021.99 1022.25 1022.69 1023.29 1024.03 1024.83 1025.61 1026.29 1026.80 1027.14 1027.33 1027.42 1027.47 1027.51 1027.58 1027.69 1027.81 1027.91 1027.96 1027.96 1027.91 1027.82 1027.71 1027.62 1027.54 1027.48 1027.41 1027.30 1027.13 1026.91 1026.63 1026.34 1026.05 1025.83 1025.66 1025.57 1025.53 1025.50 1025.43
1016.91 1017.58 1018.40 1019.26 1020.07 1020.74 1021.22 1021.53 1021.72 1021.87 1022.08 1022.41 1022.90 1023.54 1024.28 1025.05 1025.75 1026.33 1026.76 1027.02 1027.18 1027.27 1027.35 1027.47 1027.63 1027.83 1028.02 1028.18 1028.28 1028.29 1028.23 1028.12 1027.99 1027.88 1027.79 1027.73 1027.67 1027.59 1027.46 1027.29 1027.07 1026.82 1026.59 1026.39 1026.25 1026.16 1026.11 1026.07 1025.99
1017.53 1018.22 1019.01 1019.80 1020.51 1021.07 1021.46 1021.70 1021.86 1022.02 1022.27 1022.65 1023.17 1023.83 1024.54 1025.25 1025.87 1026.35 1026.67 1026.87 1026.99 1027.09 1027.21 1027.40 1027.65 1027.93 1028.21 1028.43 1028.56 1028.58 1028.52 1028.39 1028.24 1028.10 1028.00 1027.94 1027.89 1027.84 1027.77 1027.65 1027.49 1027.31 1027.13 1026.97 1026.85 1026.76 1026.70 1026.64 1026.54
1018.32 1019.00 1019.74 1020.45 1021.05 1021.50 1021.80 1021.98 1022.11 1022.27 1022.53 1022.93 1023.47 1024.11 1024.79 1025.42 1025.95 1026.33 1026.58 1026.72 1026.81 1026.92 1027.08 1027.32 1027.64 1028.00 1028.33 1028.59 1028.75 1028.79 1028.72 1028.59 1028.42 1028.28 1028.17 1028.11 1028.08 1028.06 1028.03 1027.97 1027.87 1027.74 1027.61 1027.49 1027.38 1027.30 1027.23 1027.15 1027.04
1019.21 1019.87 1020.55 1021.17 1021.67 1022.02 1022.22 1022.34 1022.43 1022.57 1022.83 1023.23 1023.75 1024.35 1024.97 1025.53 1025.98 1026.29 1026.47 1026.57 1026.65 1026.76 1026.95 1027.23 1027.59 1027.98 1028.35 1028.64 1028.81 1028.86 1028.80 1028.67 1028.51 1028.37 1028.26 1028.21 1028.20 1028.21 1028.22 1028.20 1028.15 1028.07 1027.98 1027.88 1027.79 1027.71 1027.62 1027.53 1027.41
1020.12 1020.75 1021.37 1021.90 1022.29 1022.54 1022.67 1022.72 1022.76 1022.87 1023.10 1023.46 1023.94 1024.49 1025.04 1025.53 1025.91 1026.17 1026.32 1026.40 1026.48 1026.60 1026.80 1027.10 1027.46 1027.86 1028.22 1028.51 1028.69 1028.74 1028.69 1028.58 1028.44 1028.33 1028.25 1028.23 1028.24 1028.28 1028.31 1028.32 1028.30 1028.26 1028.19 1028.10 1028.02 1027.93 1027.84 1027.73 1027.61
1020.93 1021.53 1022.08 1022.53 1022.84 1023.01 1023.07 1023.06 1023.05 1023.12 1023.29 1023.59 1024.00 1024.47 1024.95 1025.38 1025.71 1025.94 1026.08 1026.17 1026.25 1026.39 1026.60 1026.88 1027.23 1027.59 1027.93 1028.18 1028.34 1028.40 1028.37 1028.29 1028.20 1028.13 1028.10 1028.11 1028.16 1028.22 1028.28 1028.31 1028.31 1028.28 1028.22 1028.15 1028.07 1027.98 1027.89 1027.78 1027.67
1021.55 1022.10 1022.60 1022.99 1023.25 1023.37 1023.38 1023.34 1023.29 1023.30 1023.40 1023.62 1023.93 1024.31 1024.70 1025.06 1025.35 1025.57 1025.72 1025.83 1025.95 1026.10 1026.31 1026.57 1026.88 1027.18 1027.46 1027.67 1027.81 1027.86 1027.86 1027.82 1027.78 1027.77 1027.80 1027.86 1027.94 1028.03 1028.10 1028.15 1028.16 1028.14 1028.10 1028.04 1027.97 1027.89 1027.81 1027.72 1027.61
1021.92 1022.42 1022.88 1023.24 1023.48 1023.59 1023.60 1023.55 1023.47 1023.43 1023.46 1023.57 1023.77 1024.03 1024.32 1024.61 1024.86 1025.07 1025.24 1025.39 1025.55 1025.72 1025.93 1026.16 1026.41 1026.66 1026.86 1027.02 1027.12 1027.17 1027.19 1027.20 1027.23 1027.28 1027.36 1027.47 1027.59 1027.71 1027.80 1027.86 1027.88 1027.88 1027.86 1027.82 1027.78 1027.73 1027.67 1027.60 1027.51
1022.05 1022.52 1022.95 1023.31 1023.57 1023.71 1023.76 1023.72 1023.64 1023.56 1023.51 1023.52 1023.60 1023.73 1023.90 1024.10 1024.31 1024.51 1024.69 1024.88 1025.07 1025.27 1025.48 1025.69 1025.90 1026.08 1026.22 1026.33 1026.40 1026.44 1026.48 1026.53 1026.60 1026.71 1026.84 1026.99 1027.15 1027.28 1027.39 1027.46 1027.51 1027.54 1027.55 1027.55 1027.55 1027.55 1027.52 1027.48 1027.41
1022.04 1022.47 1022.89 1023.27 1023.58 1023.79 1023.90 1023.92 1023.86 1023.76 1023.64 1023.55 1023.49 1023.49 1023.54 1023.64 1023.78 1023.95 1024.15 1024.36 1024.58 1024.80 1025.01 1025.21 1025.38 1025.52 1025.62 1025.69 1025.73 1025.77 1025.81 1025.89 1025.99 1026.13 1026.30 1026.47 1026.64 1026.78 1026.91 1027.00 1027.08 1027.14 1027.20 1027.26 1027.32 1027.37 1027.39 1027.39 1027.34
1022.01 1022.41 1022.83 1023.25 1023.62 1023.91 1024.10 1024.19 1024.16 1024.05 1023.89 1023.70 1023.53 1023.40 1023.33 1023.32 1023.39 1023.51 1023.69 1023.91 1024.14 1024.38 1024.60 1024.79 1024.94 1025.06 1025.13 1025.17 1025.20 1025.23 1025.28 1025.36 1025.47 1025.61 1025.78 1025.94 1026.11 1026.25 1026.38 1026.49 1026.59 1026.70 1026.82 1026.95 1027.07 1027.19 1027.27 1027.31 1027.29
1022.09 1022.46 1022.89 1023.33 1023.76 1024.13 1024.39 1024.54 1024.56 1024.45 1024.25 1024.00 1023.73 1023.49 1023.31 1023.20 1023.19 1023.26 1023.40 1023.60 1023.83 1024.06 1024.29 1024.47 1024.62 1024.72 1024.78 1024.82 1024.84 1024.86 1024.91 1024.97 1025.07 1025.19 1025.32 1025.45 1025.58 1025.70 1025.82 1025.94 1026.07 1026.22 1026.40 1026.59 1026.79 1026.97 1027.11 1027.20 1027.21
1022.41 1022.74 1023.15 1023.60 1024.05 1024.46 1024.77 1024.96 1025.00 1024.90 1024.68 1024.38 1024.05 1023.74 1023.47 1023.29 1023.21 1023.22 1023.32 1023.48 1023.68 1023.90 1024.10 1024.28 1024.42 1024.52 1024.58 1024.62 1024.65 1024.67 1024.70 1024.74 1024.79 1024.85 1024.92 1025.00 1025.07 1025.15 1025.24 1025.36 1025.51 1025.69 1025.91 1026.16 1026.42 1026.66 1026.86 1026.99 1027.04
1023.00 1023.28 1023.65 1024.06 1024.49 1024.88 1025.19 1025.37 1025.41 1025.30 1025.08 1024.76 1024.41 1024.07 1023.77 1023.55 1023.42 1023.39 1023.44 1023.55 1023.70 1023.87 1024.04 1024.20 1024.32 1024.42 1024.49 1024.54 1024.57 1024.58 1024.59 1024.60 1024.60 1024.59 1024.58 1024.58 1024.58 1024.61 1024.66 1024.76 1024.91 1025.11 1025.36 1025.65 1025.95 1026.23 1026.47 1026.64 1026.73
1023.84 1024.07 1024.36 1024.69 1025.03 1025.34 1025.57 1025.69 1025.69 1025.56 1025.33 1025.02 1024.69 1024.36 1024.09 1023.88 1023.75 1023.69 1023.71 1023.77 1023.86 1023.97 1024.08 1024.19 1024.28 1024.37 1024.44 1024.49 1024.53 1024.54 1024.53 1024.50 1024.44 1024.36 1024.28 1024.19 1024.12 1024.08 1024.09 1024.16 1024.29 1024.49 1024.75 1025.05 1025.36 1025.66 1025.93 1026.13 1026.25
1024.83 1025.00 1025.19 1025.39 1025.59 1025.75 1025.84 1025.85 1025.75 1025.57 1025.33 1025.05 1024.77 1024.52 1024.31 1024.17 1024.08 1024.04 1024.04 1024.06 1024.09 1024.13 1024.17 1024.21 1024.26 1024.32 1024.37 1024.43 1024.47 1024.48 1024.45 1024.39 1024.28 1024.14 1023.98 1023.83 1023.69 1023.59 1023.55 1023.59 1023.70 1023.88 1024.12 1024.40 1024.70 1024.99 1025.26 1025.47 1025.61
1025.85 1025.95 1026.02 1026.07 1026.09 1026.05 1025.95 1025.78 1025.56 1025.31 1025.05 1024.80 1024.60 1024.45 1024.36 1024.32 1024.32 1024.33 1024.34 1024.34 1024.32 1024.29 1024.25 1024.22 1024.22 1024.24 1024.27 1024.32 1024.35 1024.36 1024.33 1024.24 1024.10 1023.91 1023.70 1023.49 1023.31 1023.17 1023.09 1023.09 1023.16 1023.31 1023.51 1023.76 1024.02 1024.28 1024.52 1024.73 1024.88
1026.77 1026.80 1026.76 1026.64 1026.45 1026.19 1025.87 1025.51 1025.14 1024.80 1024.50 1024.29 1024.17 1024.14 1024.19 1024.29 1024.40 1024.49 1024.55 1024.54 1024.49 1024.41 1024.31 1024.22 1024.16 1024.13 1024.15 1024.18 1024.21 1024.21 1024.17 1024.08 1023.91 1023.70 1023.46 1023.22 1023.00 1022.83 1022.72 1022.69 1022.74 1022.84 1022.99 1023.18 1023.38 1023.59 1023.79 1023.97 1024.12
1027.47 1027.46 1027.31 1027.04 1026.66 1026.19 1025.65 1025.09 1024.57 1024.12 1023.78 1023.59 1023.55 1023.64 1023.82 1024.05 1024.29 1024.48 1024.60 1024.63 1024.57 1024.46 1024.32 1024.19 1024.09 1024.04 1024.03 1024.05 1024.08 1024.09 1024.04 1023.94 1023.77 1023.54 1023.29 1023.03 1022.80 1022.61 1022.49 1022.44 1022.45 1022.51 1022.61 1022.73 1022.86 1023.00 1023.13 1023.26 1023.39
1027.90 1027.86 1027.64 1027.25 1026.71 1026.06 1025.34 1024.61 1023.94 1023.39 1023.01 1022.82 1022.83 1023.01 1023.30 1023.66 1024.01 1024.30 1024.49 1024.57 1024.55 1024.45 1024.31 1024.16 1024.05 1023.99 1023.98 1024.00 1024.03 1024.04 1023.99 1023.89 1023.71 1023.48 1023.22 1022.96 1022.72 1022.52 1022.39 1022.32 1022.30 1022.32 1022.37 1022.42 1022.48 1022.54 1022.60 1022.67 1022.76
1028.05 1028.00 1027.73 1027.27 1026.62 1025.85 1024.99 1024.14 1023.36 1022.73 1022.30 1022.10 1022.13 1022.35 1022.72 1023.16 1023.59 1023.97 1024.24 1024.39 1024.42 1024.37 1024.27 1024.16 1024.08 1024.04 1024.05 1024.08 1024.12 1024.13 1024.08 1023.97 1023.78 1023.54 1023.27 1023.00 1022.76 1022.56 1022.42 1022.34 1022.29 1022.28 1022.28 1022.27 1022.25 1022.23 1022.22 1022.22 1022.24
1027.95 1027.89 1027.61 1027.11 1026.41 1025.57 1024.65 1023.73 1022.89 1022.21 1021.74 1021.52 1021.53 1021.76 1022.14 1022.62 1023.10 1023.54 1023.88 1024.10 1024.22 1024.25 1024.23 1024.20 1024.18 1024.20 1024.25 1024.31 1024.36 1024.37 1024.32 1024.19 1023.99 1023.74 1023.45 1023.17 1022.92 1022.71 1022.56 1022.47 1022.40 1022.36 1022.31 1022.25 1022.18 1022.09 1022.00 1021.92 1021.87
1027.65 1027.57 1027.28 1026.77 1026.07 1025.24 1024.31 1023.39 1022.54 1021.84 1021.34 1021.09 1021.07 1021.27 1021.63 1022.09 1022.58 1023.05 1023.45 1023.75 1023.96 1024.10 1024.19 1024.27 1024.36 1024.46 1024.57 1024.67 1024.74 1024.76 1024.69 1024.55 1024.32 1024.05 1023.74 1023.44 1023.17 1022.95 1022.79 1022.69 1022.61 1022.54 1022.47 1022.37 1022.24 1022.09 1021.93 1021.78 1021.65
1027.19 1027.07 1026.76 1026.26 1025.59 1024.79 1023.92 1023.04 1022.23 1021.55 1021.06 1020.79 1020.73 1020.88 1021.19 1021.61 1022.08 1022.55 1022.98 1023.36 1023.67 1023.94 1024.16 1024.37 1024.58 1024.78 1024.96 1025.11 1025.21 1025.22 1025.15 1024.98 1024.73 1024.42 1024.10 1023.78 1023.50 1023.27 1023.10 1022.98 1022.89 1022.81 1022.72 1022.59 1022.43 1022.23 1022.01 1021.79 1021.59
Thickness
5693 5698 5702 5697 5682 5675 5675 5685 5694 5691 5690 5692 5693 5694 5690 5682 5676 5666 5669 5675 5674 5672 5668 5665 5664 5663 5662 5661 5660 5659 5659 5659 5659 5659 5660 5660 5660 5660 5660 5660 5660 5660 5660 5660 5659 5658 5657 5656 5655
5690 5696 5694 5686 5672 5664 5673 5685 5685 5685 5685 5688 5689 5688 5685 5676 5675 5670 5669 5670 5670 5668 5664 5661 5660 5659 5658 5656 5655 5654 5654 5654 5654 5654 5655 5655 5655 5655 5655 5655 5655 5655 5655 5655 5654 5653 5652 5651 5650
5687 5692 5682 5675 5669 5666 5671 5682 5681 5681 5683 5683 5680 5681 5677 5670 5670 5667 5667 5667 5666 5663 5660 5657 5655 5654 5652 5651 5650 5650 5649 5649 5649 5650 5650 5650 5650 5650 5650 5650 5650 5650 5650 5649 5649 5647 5646 5645 5644
5683 5681 5676 5666 5664 5671 5674 5676 5679 5675 5676 5678 5676 5671 5668 5667 5666 5665 5664 5663 5661 5659 5655 5652 5651 5649 5647 5646 5645 5645 5644 5644 5644 5644 5645 5645 5645 5645 5645 5645 5645 5645 5644 5644 5643 5642 5641 5640 5639
5678 5670 5659 5656 5661 5667 5672 5675 5676 5672 5670 5672 5671 5667 5660 5660 5662 5661 5660 5659 5657 5654 5651 5647 5645 5644 5642 5641 5640 5640 5639 5639 5639 5639 5639 5639 5640 5640 5640 5640 5639 5639 5638 5638 5637 5636 5635 5634 5633
5665 5664 5651 5650 5658 5663 5667 5670 5670 5667 5666 5667 5665 5661 5654 5655 5655 5655 5655 5654 5653 5650 5647 5643 5641 5639 5638 5637 5636 5635 5634 5634 5634 5634 5633 5633 5633 5634 5634 5634 5634 5633 5632 5632 5631 5630 5629 5628 5627
5656 5653 5649 5654 5654 5656 5660 5665 5663 5661 5660 5660 5661 5655 5648 5648 5649 5650 5649 5649 5647 5645 5642 5639 5636 5634 5633 5631 5630 5630 5629 5629 5628 5628 5628 5628 5627 5627 5627 5627 5627 5627 5626 5625 5624 5623 5622 5621 5620
5656 5651 5649 5653 5651 5651 5656 5658 5658 5655 5654 5658 5657 5649 5644 5643 5644 5644 5643 5642 5641 5640 5637 5635 5632 5629 5628 5626 5625 5624 5624 5623 5623 5622 5622 5621 5621 5621 5621 5621 5621 5620 5619 5618 5618 5617 5616 5615 5613
5654 5641 5642 5647 5647 5647 5650 5649 5651 5652 5650 5649 5648 5644 5643 5641 5639 5637 5636 5635 5635 5634 5632 5630 5628 5625 5624 5622 5620 5619 5618 5617 5616 5616 5616 5615 5615 5615 5614 5614 5614 5613 5612 5611 5611 5610 5609 5608 5606
5643 5634 5637 5642 5645 5644 5644 5643 5643 5643 5640 5639 5637 5636 5635 5634 5632 5631 5630 5630 5629 5628 5627 5625 5623 5621 5620 5618 5616 5614 5612 5611 5610 5610 5609 5609 5608 5608 5608 5607 5607 5606 5605 5604 5603 5602 5602 5601 5599
5637 5631 5634 5636 5636 5637 5636 5636 5638 5634 5632 5634 5633 5629 5628 5628 5627 5626 5626 5627 5626 5625 5623 5621 5619 5617 5615 5613 5611 5609 5607 5606 5605 5604 5603 5602 5602 5601 5601 5600 5599 5598 5598 5597 5596 5595 5594 5594 5592
5628 5627 5628 5626 5626 5627 5626 5627 5626 5625 5627 5631 5631 5629 5625 5623 5623 5623 5623 5623 5622 5621 5619 5617 5615 5613 5610 5608 5606 5604 5602 5600 5599 5598 5597 5596 5595 5595 5594 5593 5593 5592 5591 5590 5589 5588 5588 5587 5585
5620 5619 5620 5619 5618 5618 5617 5616 5617 5620 5624 5626 5625 5623 5620 5619 5619 5621 5621 5619 5618 5616 5615 5613 5611 5608 5605 5603 5601 5599 5597 5595 5593 5592 5591 5590 5589 5588 5587 5586 5586 5585 5584 5583 5582 5581 5580 5579 5578
5615 5614 5612 5612 5612 5612 5609 5611 5612 5617 5620 5620 5618 5616 5617 5617 5617 5616 5616 5615 5614 5612 5611 5609 5606 5603 5601 5598 5596 5594 5592 5590 5588 5586 5585 5584 5582 5581 5580 5580 5579 5578 5577 5576 5575 5574 5573 5571 5570
5609 5605 5605 5606 5608 5608 5604 5605 5609 5616 5617 5615 5615 5614 5614 5615 5615 5614 5613 5612 5611 5608 5606 5604 5602 5599 5596 5594 5591 5590 5588 5585 5584 5582 5580 5578 5577 5576 5575 5574 5573 5572 5571 5569 5568 5567 5565 5563 5561
5605 5601 5599 5604 5605 5604 5598 5602 5613 5614 5613 5612 5612 5612 5612 5613 5613 5613 5612 5610 5608 5605 5602 5600 5597 5594 5592 5589 5587 5585 5583 5581 5579 5577 5575 5573 5572 5571 5570 5569 5568 5566 5564 5563 5561 5560 5557 5555 5553
5599 5598 5600 5600 5602 5601 5596 5598 5608 5610 5610 5609 5610 5610 5610 5610 5611 5611 5610 5607 5605 5603 5599 5596 5593 5590 5587 5585 5582 5580 5578 5576 5574 5571 5570 5569 5568 5567 5566 5565 5562 5560 5558 5556 5554 5552 5550 5548 5546
5595 5598 5601 5599 5598 5595 5594 5597 5604 5607 5608 5607 5608 5608 5608 5608 5609 5609 5608 5606 5603 5599 5596 5593 5590 5586 5583 5581 5577 5575 5573 5571 5568 5566 5564 5563 5562 5561 5560 5559 5557 5554 5551 5549 5547 5545 5542 5540 5539
5596 5595 5594 5596 5594 5590 5591 5596 5602 5605 5604 5604 5605 5606 5606 5607 5608 5607 5605 5602 5599 5596 5592 5589 5586 5583 5579 5576 5573 5570 5567 5565 5562 5560 5558 5557 5556 5555 5554 5553 5551 5548 5545 5542 5540 5537 5534 5532 5530
5589 5587 5589 5591 5588 5586 5588 5594 5603 5605 5604 5604 5605 5605 5605 5605 5604 5603 5601 5599 5596 5593 5589 5586 5583 5579 5576 5573 5570 5567 5563 5559 5556 5554 5552 5551 5551 5550 5548 5546 5544 5541 5538 5535 5532 5530 5527 5524 5523
5582 5580 5580 5578 5579 5582 5581 5591 5602 5606 5605 5605 5606 5605 5604 5603 5601 5600 5598 5594 5591 5588 5585 5583 5579 5576 5573 5570 5566 5563 5558 5554 5551 5549 5547 5546 5545 5544 5542 5540 5538 5535 5532 5529 5526 5523 5521 5517 5515
5575 5574 5573 5571 5568 5572 5578 5574 5598 5604 5602 5603 5602 5602 5602 5601 5599 5598 5595 5591 5588 5585 5582 5579 5576 5573 5569 5566 5562 5559 5555 5551 5549 5546 5544 5541 5539 5538 5536 5534 5532 5529 5526 5523 5520 5518 5515 5512 5508
5567 5568 5566 5566 5565 5564 5572 5568 5590 5603 5601 5602 5603 5602 5602 5600 5598 5596 5593 5590 5586 5583 5579 5576 5573 5569 5566 5562 5559 5556 5553 5549 5545 5541 5539 5536 5534 5533 5531 5529 5526 5524 5521 5517 5514 5511 5509 5506 5502
5561 5561 5562 5560 5557 5556 5574 5568 5584 5598 5605 5607 5606 5604 5601 5598 5595 5593 5590 5587 5584 5580 5576 5573 5569 5566 5563 5559 5556 5552 5549 5545 5541 5538 5536 5533 5530 5528 5526 5523 5520 5518 5514 5511 5508 5505 5502 5499 5496
5555 5553 5551 5551 5548 5560 5576 5570 5582 5603 5610 5611 5607 5602 5599 5596 5592 5589 5586 5584 5581 5577 5574 5570 5566 5563 5559 5555 5552 5549 5545 5542 5539 5536 5533 5529 5526 5523 5521 5518 5515 5512 5509 5506 5503 5499 5496 5493 5489
5553 5554 5546 5546 5553 5563 5565 5571 5591 5605 5607 5608 5606 5602 5597 5593 5590 5587 5584 5581 5578 5575 5570 5566 5563 5559 5555 5552 5548 5545 5541 5538 5535 5533 5529 5526 5522 5519 5516 5513 5510 5507 5504 5501 5498 5494 5490 5487 5483
5550 5548 5551 5546 5538 5541 5566 5589 5595 5599 5600 5599 5598 5596 5592 5590 5587 5583 5580 5577 5574 5570 5566 5563 5559 5554 5551 5548 5544 5541 5538 5534 5531 5529 5525 5522 5518 5515 5512 5508 5505 5502 5499 5496 5492 5488 5484 5480 5476
5539 5543 5540 5540 5542 5551 5575 5585 5586 5590 5592 5592 5591 5589 5589 5586 5583 5580 5576 5572 5569 5565 5562 5558 5554 5550 5547 5543 5540 5537 5533 5530 5527 5524 5520 5517 5513 5510 5506 5503 5499 5496 5492 5489 5485 5481 5477 5473 5469
5531 5535 5539 5542 5544 5549 5557 5575 5598 5596 5594 5590 5588 5587 5585 5581 5578 5575 5571 5567 5563 5560 5556 5553 5549 5546 5542 5538 5535 5531 5528 5525 5521 5518 5514 5511 5507 5503 5500 5497 5493 5489 5485 5481 5478 5474 5470 5465 5461
5534 5540 5539 5536 5539 5541 5549 5566 5592 5593 5592 5588 5585 5583 5580 5578 5574 5569 5565 5560 5556 5553 5551 5548 5545 5541 5537 5534 5530 5526 5523 5519 5515 5512 5508 5505 5501 5497 5493 5489 5485 5481 5478 5474 5470 5466 5462 5457 5453